Weather History for Lamoni, IA

Change the Weather History Date:

Wednesday, November 9, 2011

  Actual Average Record
Temperature  
Mean Temperature 39 °F 43 °F  
Max Temperature 45 °F 53 °F 75 °F (1999)
Min Temperature 32 °F 34 °F 12 °F (1991)
Degree Days  
Heating Degree Days 26 22  
Month to date heating degree days 165 181  
Since 1 July heating degree days 641 665  
Cooling Degree Days 0 0  
Month to date cooling degree days 0 0  
Year to date cooling degree days 1144 946  
Moisture  
Dew Point 30 °F    
Average Humidity 81    
Maximum Humidity 100    
Minimum Humidity 62    
Precipitation  
Precipitation 0.55 in 0.08 in 1.56 in (1983)
Month to date precipitation 3.37 0.92  
Year to date precipitation 32.49  
Sea Level Pressure  
Sea Level Pressure 30.08 in    
Wind  
Wind Speed 15 mph (NW)    
Max Wind Speed 18 mph    
Max Gust Speed 24 mph    
Visibility 8 miles    
Events Snow    
T = Trace of Precipitation, MM = Missing Value Source: NWS Daily Summary

Daily Weather History Graph

Daily Weather History Graph

Search for Another Location

Airport:

Trip Planner

Search our weather history database for the weather conditions in past years. The results will help you decide how hot, cold, wet, or windy it might be!

Date:

Astronomy

Nov. 09, 2011 Rise Set
Actual Time 6:54 AM CST 5:03 PM CST
Civil Twilight 6:25 AM CST 5:32 PM CST
Nautical Twilight 5:53 AM CST 6:05 PM CST
Astronomical Twilight 5:21 AM CST 6:37 PM CST
Moon 4:15 PM CST (11/9) 5:51 AM CST (11/9)
Length of Visible Light 11h 06m
Length of Day
10h 08m
Waxing Gibbous, 99% of the Moon is Illuminated
Nov 9
Waxing Gibbous
Nov 10
Full
Nov 18
Last Quarter
Nov 25
New
Dec 2
First Quarter

Hourly Weather History & Observations

Time (CST) Temp. Windchill Dew Point Humidity Pressure Visibility Wind Dir Wind Speed Gust Speed Precip Events Conditions
12:21 AM 33.8 °F 23.9 °F 32.0 °F 93% 29.91 in 1.8 mi North 15.0 mph 23.0 mph 0.06 in Snow Light Snow
12:53 AM 33.1 °F 22.6 °F 32.0 °F 96% 29.93 in 1.0 mi North 16.1 mph 26.5 mph 0.20 in Snow Light Snow
1:10 AM 33.8 °F 23.2 °F 32.0 °F 93% 29.90 in 1.0 mi North 17.3 mph 25.3 mph 0.07 in Snow Light Snow
1:53 AM 33.1 °F 21.5 °F 32.0 °F 96% 29.93 in 1.5 mi North 19.6 mph 28.8 mph 0.20 in Snow Light Snow
2:53 AM 33.1 °F 20.9 °F 32.0 °F 96% 29.95 in 1.5 mi North 21.9 mph 32.2 mph 0.07 in Snow Light Snow
3:53 AM 33.1 °F 21.5 °F 33.1 °F 100% 29.96 in 1.5 mi NNW 19.6 mph 26.5 mph 0.06 in Snow Light Snow
4:17 AM 33.8 °F 21.9 °F - N/A% 29.94 in 2.0 mi NNW 21.9 mph 33.4 mph 0.01 in Snow Light Snow
4:42 AM 33.8 °F 21.9 °F - N/A% 29.94 in 4.0 mi NNW 21.9 mph 29.9 mph 0.02 in Snow Light Snow
4:53 AM 33.1 °F 20.9 °F - N/A% 29.98 in 7.0 mi NNW 21.9 mph 28.8 mph 0.03 in Snow Light Snow
5:39 AM 33.8 °F 21.9 °F - N/A% 29.97 in 10.0 mi NNW 21.9 mph 38.0 mph 0.00 in   Overcast
6:19 AM 35.6 °F 25.5 °F - N/A% 30.01 in 10.0 mi NNW 17.3 mph 27.6 mph 0.00 in   Overcast
6:23 AM 33.8 °F 22.8 °F - N/A% 30.01 in 10.0 mi NNW 18.4 mph 27.6 mph 0.00 in   Overcast
6:53 AM 34.0 °F 26.0 °F - N/A% 30.06 in 10.0 mi NW 10.4 mph - 0.00 in   Overcast
7:18 AM 33.8 °F 27.0 °F - N/A% 30.05 in 10.0 mi WNW 8.1 mph - N/A   Overcast
7:53 AM 34.0 °F 26.0 °F - N/A% 30.09 in 10.0 mi WNW 10.4 mph - N/A   Scattered Clouds
8:53 AM 36.0 °F 26.7 °F - N/A% 30.12 in 10.0 mi NW 15.0 mph - N/A   Clear
9:53 AM 37.0 °F 28.5 °F 30.0 °F 76% 30.14 in 10.0 mi NW 13.8 mph 23.0 mph N/A   Clear
10:53 AM 37.9 °F 30.9 °F 30.9 °F 76% 30.16 in 10.0 mi WNW 10.4 mph - N/A   Clear
11:53 AM 39.0 °F 31.4 °F 30.9 °F 73% 30.16 in 10.0 mi WNW 12.7 mph - N/A   Clear
12:53 PM 39.9 °F 31.1 °F 33.1 °F 77% 30.16 in 10.0 mi West 17.3 mph 23.0 mph N/A   Clear
1:53 PM 43.0 °F 35.1 °F 33.1 °F 68% 30.16 in 10.0 mi West 17.3 mph 24.2 mph N/A   Clear
2:53 PM 44.1 °F 36.5 °F 34.0 °F 68% 30.17 in 10.0 mi West 17.3 mph - N/A   Clear
3:53 PM 44.1 °F 37.4 °F 32.0 °F 63% 30.17 in 10.0 mi West 13.8 mph - N/A   Clear
4:53 PM 39.9 °F 32.9 °F 30.9 °F 70% 30.19 in 10.0 mi West 11.5 mph - N/A   Clear
5:53 PM 37.0 °F 29.8 °F 28.9 °F 73% 30.21 in 10.0 mi WNW 10.4 mph - N/A   Clear
6:53 PM 36.0 °F 28.5 °F 28.0 °F 73% 30.22 in 10.0 mi West 10.4 mph - N/A   Clear
7:53 PM 36.0 °F 28.0 °F 27.0 °F 70% 30.22 in 10.0 mi WNW 11.5 mph - N/A   Clear
8:53 PM 34.0 °F 25.5 °F 25.0 °F 70% 30.23 in 10.0 mi West 11.5 mph - N/A   Clear
9:53 PM 34.0 °F 25.0 °F 24.1 °F 67% 30.23 in 10.0 mi West 12.7 mph - N/A   Clear
10:53 PM 33.1 °F 24.9 °F 24.1 °F 70% 30.23 in 10.0 mi WNW 10.4 mph - N/A   Clear
11:53 PM 32.0 °F 23.6 °F 24.1 °F 73% 30.23 in 10.0 mi WNW 10.4 mph - N/A   Clear